LOT6YM EPKK-EPWA

Flight info

Callsign LOT6YM
Flight time 0h 34m
Altitude 25000
Route POBOK M985 KOTEK M866 LOGDA
Aircraft B38M/M-SDE1FGHILORVWXY/HB1

Departure

Time 2026-04-30 18:40
Airport Kraków John Paul II International Airport (EPKK)

Arrival

Time 2026-04-30 19:14
Airport Warsaw Chopin Airport (EPWA)
Time Latitude Longitude Altitude Speed Heading
2026-04-30 18:16 50.07331 19.80105 802 ft 0 kts 167°
2026-04-30 18:32 50.07348 19.80098 802 ft 2 kts 163°
2026-04-30 18:33 50.07364 19.80090 802 ft 2 kts 158°
2026-04-30 18:33 50.07392 19.80063 802 ft 2 kts 127°
2026-04-30 18:33 50.07398 19.80040 802 ft 2 kts 94°
2026-04-30 18:34 50.07397 19.80019 802 ft 1 kts 77°
2026-04-30 18:34 50.07397 19.80016 802 ft 0 kts 77°
2026-04-30 18:36 50.07398 19.80023 802 ft 2 kts 77°
2026-04-30 18:37 50.07405 19.80072 802 ft 9 kts 77°
2026-04-30 18:37 50.07429 19.80236 802 ft 20 kts 78°
2026-04-30 18:37 50.07488 19.80386 802 ft 18 kts 20°
2026-04-30 18:37 50.07619 19.80412 802 ft 20 kts 346°
2026-04-30 18:38 50.07764 19.80362 802 ft 21 kts 348°
2026-04-30 18:38 50.07824 19.80342 802 ft 2 kts 348°
2026-04-30 18:38 50.07849 19.80334 802 ft 6 kts 348°
2026-04-30 18:38 50.07883 19.80322 802 ft 0 kts 348°
2026-04-30 18:39 50.07903 19.80315 802 ft 8 kts 347°
2026-04-30 18:39 50.07996 19.80270 802 ft 13 kts 326°
2026-04-30 18:39 50.08011 19.80184 803 ft 8 kts 254°
2026-04-30 18:39 50.07979 19.79960 803 ft 56 kts 258°
2026-04-30 18:40 50.07835 19.78928 804 ft 136 kts 257°
2026-04-30 18:40 50.07581 19.77210 1077 ft 177 kts 258°
2026-04-30 18:40 50.07291 19.75309 1996 ft 186 kts 259°
2026-04-30 18:40 50.07004 19.73271 2869 ft 197 kts 262°
2026-04-30 18:41 50.06718 19.71113 3639 ft 212 kts 261°
2026-04-30 18:41 50.06402 19.68778 4377 ft 229 kts 262°
2026-04-30 18:41 50.06435 19.66258 5068 ft 241 kts 291°
2026-04-30 18:41 50.07314 19.64133 5895 ft 239 kts 319°
2026-04-30 18:42 50.08716 19.62816 6010 ft 235 kts 342°
2026-04-30 18:42 50.11852 19.63157 6046 ft 238 kts 31°
2026-04-30 18:42 50.12982 19.64711 7585 ft 205 kts 41°
2026-04-30 18:45 50.27639 19.82758 14840 ft 311 kts 38°
2026-04-30 18:45 50.29325 19.84889 15617 ft 313 kts 38°
2026-04-30 18:45 50.31030 19.87045 16340 ft 317 kts 38°
2026-04-30 18:46 50.32748 19.89223 17097 ft 319 kts 38°
2026-04-30 18:46 50.34614 19.91118 17825 ft 322 kts 27°
2026-04-30 18:46 50.36619 19.92711 18532 ft 325 kts 28°
2026-04-30 18:46 50.38604 19.94339 19154 ft 327 kts 28°
2026-04-30 18:47 50.40622 19.95992 19811 ft 328 kts 28°
2026-04-30 18:47 50.42650 19.97653 20446 ft 330 kts 28°
2026-04-30 18:47 50.44688 19.99323 21066 ft 331 kts 28°
2026-04-30 18:47 50.46736 20.01002 21685 ft 333 kts 29°
2026-04-30 18:48 50.48793 20.02691 22298 ft 335 kts 29°
2026-04-30 18:48 50.50863 20.04392 22882 ft 336 kts 29°
2026-04-30 18:48 50.52907 20.06073 23517 ft 336 kts 29°
2026-04-30 18:48 50.54969 20.07770 24228 ft 333 kts 29°
2026-04-30 18:49 50.57009 20.09451 24878 ft 329 kts 30°
2026-04-30 18:49 50.59030 20.11119 25316 ft 327 kts 30°
2026-04-30 18:49 50.61033 20.12771 25363 ft 323 kts 30°
2026-04-30 18:49 50.63012 20.14407 25373 ft 322 kts 30°
2026-04-30 18:50 50.64992 20.16045 25378 ft 321 kts 30°
2026-04-30 18:50 50.67015 20.17555 25379 ft 322 kts 25°
2026-04-30 18:50 50.69090 20.18890 25377 ft 322 kts 25°
2026-04-30 18:50 50.71158 20.20247 25406 ft 322 kts 26°
2026-04-30 18:51 50.73222 20.21616 25391 ft 321 kts 26°
2026-04-30 18:51 50.75253 20.22971 25382 ft 321 kts 26°
2026-04-30 18:51 50.77314 20.24350 25376 ft 321 kts 26°
2026-04-30 18:51 50.79340 20.25708 25379 ft 309 kts 26°
2026-04-30 18:52 50.81263 20.27045 25347 ft 293 kts 31°
2026-04-30 18:52 50.82979 20.28603 25354 ft 279 kts 27°
2026-04-30 18:52 50.84774 20.29739 25054 ft 275 kts 26°
2026-04-30 18:52 50.86511 20.30864 25214 ft 273 kts 26°
2026-04-30 18:53 50.88368 20.32085 23926 ft 301 kts 25°
2026-04-30 18:53 50.90257 20.33339 24042 ft 280 kts 26°
2026-04-30 18:53 50.92019 20.34517 23836 ft 274 kts 26°
2026-04-30 18:53 50.93787 20.35705 23358 ft 278 kts 26°
2026-04-30 18:54 50.95555 20.36895 22960 ft 282 kts 25°
2026-04-30 18:54 50.97361 20.38112 22603 ft 283 kts 25°
2026-04-30 18:54 50.99171 20.39334 22273 ft 282 kts 25°
2026-04-30 18:54 51.00977 20.40553 21929 ft 282 kts 25°
2026-04-30 18:55 51.02777 20.41771 21592 ft 281 kts 25°
2026-04-30 18:55 51.06366 20.44200 20918 ft 280 kts 25°
2026-04-30 18:55 51.08134 20.45398 20594 ft 279 kts 25°
2026-04-30 18:56 51.11702 20.47820 19932 ft 278 kts 25°
2026-04-30 18:56 51.13480 20.49028 19599 ft 278 kts 24°
2026-04-30 18:56 51.15258 20.50236 19269 ft 278 kts 24°
2026-04-30 18:57 51.18808 20.52654 18609 ft 277 kts 24°
2026-04-30 18:57 51.20580 20.53862 18233 ft 277 kts 24°
2026-04-30 18:57 51.22344 20.55066 17893 ft 275 kts 24°
2026-04-30 18:58 51.25858 20.57468 17239 ft 274 kts 24°
2026-04-30 18:58 51.27606 20.58663 16909 ft 273 kts 24°
2026-04-30 18:58 51.29328 20.59842 16592 ft 272 kts 24°
2026-04-30 18:59 51.32836 20.62246 15699 ft 277 kts 24°
2026-04-30 19:00 51.38081 20.65849 14593 ft 269 kts 24°
2026-04-30 19:00 51.39793 20.67027 14260 ft 266 kts 24°
2026-04-30 19:00 51.42586 20.68951 13684 ft 260 kts 24°
2026-04-30 19:01 51.45940 20.71264 13023 ft 266 kts 23°
2026-04-30 19:01 51.48192 20.72820 12594 ft 267 kts 23°
2026-04-30 19:02 51.51599 20.75176 11945 ft 266 kts 23°
2026-04-30 19:02 51.54420 20.77131 11400 ft 265 kts 23°
2026-04-30 19:03 51.57795 20.79473 10752 ft 263 kts 23°
2026-04-30 19:03 51.61145 20.81800 10173 ft 259 kts 23°
2026-04-30 19:04 51.64378 20.84050 9723 ft 252 kts 23°
2026-04-30 19:04 51.67572 20.86276 9051 ft 247 kts 23°
2026-04-30 19:05 51.70654 20.88428 8439 ft 241 kts 22°
2026-04-30 19:05 51.73760 20.90599 7840 ft 244 kts 22°
2026-04-30 19:06 51.76858 20.92768 7241 ft 241 kts 22°
2026-04-30 19:06 51.78395 20.93845 6937 ft 240 kts 22°
2026-04-30 19:06 51.81426 20.95973 6314 ft 238 kts 22°
2026-04-30 19:07 51.84469 20.98112 5713 ft 239 kts 22°
2026-04-30 19:07 51.85994 20.99184 5431 ft 239 kts 22°
2026-04-30 19:08 51.89048 21.01334 4795 ft 239 kts 22°
2026-04-30 19:08 51.92001 21.03418 4498 ft 222 kts 21°
2026-04-30 19:08 51.93388 21.04398 4373 ft 212 kts 21°
2026-04-30 19:09 51.95959 21.06215 4096 ft 195 kts 21°
2026-04-30 19:09 51.97198 21.07092 4058 ft 195 kts 21°
2026-04-30 19:09 51.98441 21.07972 3913 ft 190 kts 21°
2026-04-30 19:10 52.00715 21.09463 3577 ft 169 kts
2026-04-30 19:10 52.02961 21.08624 3175 ft 168 kts 335°
2026-04-30 19:11 52.03998 21.07728 2969 ft 169 kts 332°
2026-04-30 19:11 52.05974 21.05988 2546 ft 153 kts 332°
2026-04-30 19:11 52.06883 21.05195 2339 ft 144 kts 332°
2026-04-30 19:12 52.07765 21.04424 2160 ft 144 kts 332°
2026-04-30 19:12 52.08650 21.03651 1965 ft 144 kts 332°
2026-04-30 19:12 52.09534 21.02879 1769 ft 145 kts 332°
2026-04-30 19:13 52.11310 21.01326 1356 ft 146 kts 332°
2026-04-30 19:13 52.13102 20.99758 939 ft 148 kts 332°
2026-04-30 19:13 52.14011 20.98963 734 ft 149 kts 332°
2026-04-30 19:14 52.14931 20.98159 555 ft 150 kts 332°
2026-04-30 19:14 52.15849 20.97353 360 ft 144 kts 332°
2026-04-30 19:14 52.16601 20.96688 342 ft 91 kts 332°
2026-04-30 19:14 52.16976 20.96360 337 ft 36 kts 332°
2026-04-30 19:15 52.17176 20.96247 339 ft 17 kts 351°
2026-04-30 19:15 52.17344 20.96245 339 ft 1 kts
2026-04-30 19:15 52.17362 20.96251 341 ft 4 kts 11°
2026-04-30 19:16 52.17386 20.96274 336 ft 5 kts 39°
2026-04-30 19:16 52.17408 20.96329 340 ft 7 kts 72°
2026-04-30 19:16 52.17450 20.96529 338 ft 13 kts 81°
2026-04-30 19:17 52.17403 20.96626 339 ft 8 kts 149°
2026-04-30 19:17 52.17340 20.96681 339 ft 7 kts 153°
2026-04-30 19:17 52.17284 20.96728 340 ft 12 kts 152°
2026-04-30 19:18 52.17101 20.96889 338 ft 20 kts 151°
2026-04-30 19:18 52.16956 20.97015 340 ft 16 kts 152°
2026-04-30 19:18 52.16881 20.97081 337 ft 7 kts 151°
2026-04-30 19:19 52.16827 20.97129 339 ft 9 kts 151°
2026-04-30 19:19 52.16800 20.97169 339 ft 1 kts 88°
2026-04-30 19:19 52.16816 20.97301 341 ft 2 kts 77°
2026-04-30 19:20 52.16817 20.97309 341 ft 0 kts 78°